TimeEST,TemperatureF,Dew PointF,Humidity,Sea Level PressureIn,VisibilityMPH,Wind Direction,Wind SpeedMPH,Gust SpeedMPH,PrecipitationIn,Events,Conditions,WindDirDegrees,DateUTC
12:54 AM,43.0,30.0,60,30.21,10.0,North,11.5,20.7,N/A,,Clear,360,2013-01-07 05:54:00
1:54 AM,44.1,28.0,53,30.21,10.0,NNE,9.2,-,N/A,,Clear,30,2013-01-07 06:54:00
2:54 AM,45.0,27.0,49,30.24,10.0,North,13.8,23.0,N/A,,Clear,360,2013-01-07 07:54:00
3:54 AM,37.0,26.1,65,30.26,10.0,NNW,19.6,25.3,N/A,,Clear,340,2013-01-07 08:54:00
4:54 AM,39.9,25.0,55,30.26,10.0,NW,8.1,-,N/A,,Clear,310,2013-01-07 09:54:00
5:54 AM,36.0,25.0,64,30.29,10.0,NNW,12.7,-,N/A,,Clear,330,2013-01-07 10:54:00
6:54 AM,39.9,24.1,53,30.30,10.0,North,11.5,-,N/A,,Clear,350,2013-01-07 11:54:00
7:54 AM,39.0,24.1,55,30.33,10.0,North,10.4,18.4,N/A,,Clear,350,2013-01-07 12:54:00
8:54 AM,43.0,24.1,47,30.36,10.0,North,13.8,21.9,N/A,,Clear,360,2013-01-07 13:54:00
9:54 AM,45.0,25.0,46,30.37,10.0,North,10.4,-,N/A,,Clear,350,2013-01-07 14:54:00
10:54 AM,46.0,24.1,42,30.38,10.0,North,3.5,-,N/A,,Clear,10,2013-01-07 15:54:00
11:54 AM,45.0,23.0,42,30.35,10.0,Calm,Calm,-,N/A,,Clear,0,2013-01-07 16:54:00
12:54 PM,64.0,24.1,22,30.30,10.0,South,4.6,-,N/A,,Clear,180,2013-01-07 17:54:00
1:54 PM,-9999,-9999,N/A,30.31,10.0,South,9.2,-,N/A,,Clear,180,2013-01-07 18:54:00
2:54 PM,63.0,21.9,21,30.28,10.0,SSE,8.1,-,N/A,,Clear,160,2013-01-07 19:54:00
3:54 PM,66.0,23.0,20,30.30,10.0,ESE,4.6,-,N/A,,Clear,120,2013-01-07 20:54:00
4:54 PM,-9999,-9999,N/A,30.33,10.0,ESE,5.8,-,N/A,,Clear,110,2013-01-07 21:54:00
5:54 PM,-9999,-9999,N/A,30.34,10.0,SE,5.8,-,N/A,,Clear,140,2013-01-07 22:54:00
6:54 PM,-9999,-9999,N/A,30.36,10.0,South,4.6,-,N/A,,Clear,170,2013-01-07 23:54:00
7:54 PM,-9999,-9999,N/A,30.35,10.0,Calm,Calm,-,N/A,,Clear,0,2013-01-08 00:54:00
8:54 PM,-9999,-9999,N/A,30.35,10.0,Calm,Calm,-,N/A,,Clear,0,2013-01-08 01:54:00
9:54 PM,-9999,-9999,N/A,30.37,10.0,SE,3.5,-,N/A,,Clear,130,2013-01-08 02:54:00
10:54 PM,-9999,-9999,N/A,30.37,10.0,South,5.8,-,N/A,,Clear,180,2013-01-08 03:54:00
11:54 PM,-9999,-9999,N/A,30.37,10.0,Calm,Calm,-,N/A,,Clear,0,2013-01-08 04:54:00